TRA2W LPPD-EHAM

Flight info

Callsign TRA2W
Flight time 3h 38m
Altitude 27000
Route BEKUN DCT LENSI DCT ERPES/N0406F360 DCT PETEK DCT LOTEE DCT AZFIC DCT ERIGA DCT GODIX DCT PODEM DCT BAZOS DCT BELDI DCT VEKIN DCT ADUTO N873 FERDI/N0401F240 Y18 DENUT
Aircraft A21N/M-SBDE2E3FGHIJ1J5M1P2RWXYZ/LB1D1G1

Departure

Time 2026-05-07 14:10
Airport João Paulo II Airport (LPPD)

Arrival

Time 2026-05-07 17:49
Airport Amsterdam Airport Schiphol (EHAM)
Time Latitude Longitude Altitude Speed Heading
2026-05-07 13:16 37.74883 -25.71113 277 ft 0 kts 21°
2026-05-07 13:50 37.74873 -25.71118 277 ft 4 kts 24°
2026-05-07 13:50 37.74850 -25.71134 277 ft 4 kts 37°
2026-05-07 13:50 37.74831 -25.71158 277 ft 4 kts 61°
2026-05-07 13:50 37.74827 -25.71186 277 ft 3 kts 109°
2026-05-07 13:51 37.74829 -25.71193 277 ft 1 kts 111°
2026-05-07 13:51 37.74829 -25.71195 277 ft 0 kts 111°
2026-05-07 13:54 37.74826 -25.71186 277 ft 2 kts 112°
2026-05-07 13:54 37.74817 -25.71159 277 ft 4 kts 113°
2026-05-07 13:54 37.74803 -25.71115 277 ft 6 kts 112°
2026-05-07 13:54 37.74783 -25.71055 277 ft 8 kts 110°
2026-05-07 13:55 37.74761 -25.70983 277 ft 9 kts 112°
2026-05-07 13:55 37.74736 -25.70904 277 ft 10 kts 114°
2026-05-07 13:55 37.74694 -25.70834 277 ft 11 kts 158°
2026-05-07 13:55 37.74669 -25.70828 277 ft 0 kts 177°
2026-05-07 14:04 37.74667 -25.70828 277 ft 1 kts 177°
2026-05-07 14:05 37.74648 -25.70827 277 ft 4 kts 179°
2026-05-07 14:05 37.74609 -25.70834 277 ft 7 kts 192°
2026-05-07 14:05 37.74551 -25.70830 275 ft 10 kts 149°
2026-05-07 14:05 37.74512 -25.70751 273 ft 12 kts 114°
2026-05-07 14:06 37.74477 -25.70643 268 ft 15 kts 112°
2026-05-07 14:06 37.74435 -25.70515 265 ft 17 kts 112°
2026-05-07 14:06 37.74388 -25.70368 259 ft 19 kts 110°
2026-05-07 14:06 37.74337 -25.70204 250 ft 21 kts 112°
2026-05-07 14:07 37.74279 -25.70024 243 ft 23 kts 112°
2026-05-07 14:07 37.74215 -25.69826 237 ft 26 kts 112°
2026-05-07 14:07 37.74148 -25.69607 233 ft 28 kts 111°
2026-05-07 14:07 37.74074 -25.69381 221 ft 28 kts 112°
2026-05-07 14:08 37.74004 -25.69150 215 ft 28 kts 111°
2026-05-07 14:08 37.73936 -25.68940 203 ft 26 kts 111°
2026-05-07 14:08 37.73871 -25.68730 202 ft 25 kts 112°
2026-05-07 14:08 37.73793 -25.68558 198 ft 23 kts 163°
2026-05-07 14:09 37.73741 -25.68496 194 ft 10 kts 80°
2026-05-07 14:09 37.73797 -25.68496 188 ft 12 kts 295°
2026-05-07 14:09 37.73839 -25.68620 192 ft 35 kts 292°
2026-05-07 14:09 37.74015 -25.69182 214 ft 99 kts 291°
2026-05-07 14:10 37.74321 -25.70137 426 ft 123 kts 291°
2026-05-07 14:10 37.74666 -25.71117 999 ft 123 kts 292°
2026-05-07 14:10 37.74943 -25.72137 1538 ft 132 kts 281°
2026-05-07 14:10 37.74739 -25.73404 1871 ft 155 kts 270°
2026-05-07 14:11 37.74803 -25.74788 2291 ft 165 kts 282°
2026-05-07 14:11 37.74923 -25.76294 2687 ft 181 kts 282°
2026-05-07 14:11 37.75048 -25.77991 2965 ft 206 kts 281°
2026-05-07 14:11 37.75334 -25.79827 3395 ft 221 kts 294°
2026-05-07 14:12 37.76162 -25.81492 4015 ft 228 kts 313°
2026-05-07 14:12 37.77458 -25.82698 4751 ft 236 kts 329°
2026-05-07 14:12 37.79018 -25.83400 5577 ft 243 kts 345°
2026-05-07 14:12 37.80741 -25.83333 6335 ft 257 kts
2026-05-07 14:13 37.82395 -25.82341 7027 ft 274 kts 31°
2026-05-07 14:13 37.83627 -25.80430 7731 ft 294 kts 58°
2026-05-07 14:13 37.84294 -25.77971 8513 ft 302 kts 70°
2026-05-07 14:13 37.84745 -25.75350 9304 ft 310 kts 79°
2026-05-07 14:14 37.84882 -25.72567 10003 ft 316 kts 83°
2026-05-07 14:14 37.84973 -25.69764 10380 ft 332 kts 83°
2026-05-07 14:14 37.85086 -25.66771 10688 ft 350 kts 83°
2026-05-07 14:14 37.85222 -25.63614 10988 ft 368 kts 83°
2026-05-07 14:15 37.85375 -25.60304 11254 ft 386 kts 83°
2026-05-07 14:15 37.85540 -25.56836 11515 ft 403 kts 83°
2026-05-07 14:15 37.85715 -25.53230 11768 ft 418 kts 83°
2026-05-07 14:15 37.85894 -25.49525 12168 ft 426 kts 84°
2026-05-07 14:16 37.86075 -25.45761 12669 ft 431 kts 84°
2026-05-07 14:16 37.86258 -25.41961 13182 ft 435 kts 84°
2026-05-07 14:16 37.86442 -25.38124 13657 ft 439 kts 84°
2026-05-07 14:16 37.86625 -25.34254 14069 ft 443 kts 84°
2026-05-07 14:17 37.86816 -25.30371 14369 ft 439 kts 83°
2026-05-07 14:17 37.87009 -25.26509 14557 ft 441 kts 83°
2026-05-07 14:17 37.87197 -25.22605 14693 ft 447 kts 84°
2026-05-07 14:17 37.87377 -25.18665 14875 ft 451 kts 84°
2026-05-07 14:18 37.87565 -25.14711 14916 ft 452 kts 84°
2026-05-07 14:18 37.87745 -25.10703 14906 ft 461 kts 84°
2026-05-07 14:18 37.87932 -25.06616 14898 ft 470 kts 84°
2026-05-07 14:18 37.88128 -25.02463 14903 ft 474 kts 84°
2026-05-07 14:19 37.88317 -24.98245 14922 ft 486 kts 85°
2026-05-07 14:19 37.88502 -24.93975 15322 ft 486 kts 84°
2026-05-07 14:19 37.88693 -24.89680 15529 ft 491 kts 85°
2026-05-07 14:19 37.88854 -24.85413 15813 ft 473 kts 85°
2026-05-07 14:20 37.88991 -24.81379 15973 ft 447 kts 85°
2026-05-07 14:20 37.89121 -24.77486 16081 ft 441 kts 86°
2026-05-07 14:20 37.89224 -24.73665 16075 ft 441 kts 85°
2026-05-07 14:20 37.89435 -24.69644 15692 ft 460 kts 83°
2026-05-07 14:21 37.89670 -24.65664 16152 ft 459 kts 84°
2026-05-07 14:21 37.89878 -24.61628 16597 ft 460 kts 84°
2026-05-07 14:21 37.90062 -24.57574 16962 ft 462 kts 85°
2026-05-07 14:21 37.90230 -24.53501 17282 ft 465 kts 85°
2026-05-07 14:22 37.90387 -24.49399 17585 ft 468 kts 85°
2026-05-07 14:22 37.90547 -24.45282 17849 ft 470 kts 85°
2026-05-07 14:22 37.90710 -24.41144 18092 ft 472 kts 85°
2026-05-07 14:22 37.90874 -24.36988 18290 ft 473 kts 85°
2026-05-07 14:23 37.91039 -24.32825 18512 ft 474 kts 85°
2026-05-07 14:23 37.91202 -24.28652 18826 ft 476 kts 85°
2026-05-07 14:23 37.91366 -24.24455 19182 ft 478 kts 85°
2026-05-07 14:23 37.91526 -24.20230 19532 ft 481 kts 85°
2026-05-07 14:24 37.91683 -24.15987 19873 ft 484 kts 85°
2026-05-07 14:24 37.91843 -24.11710 20212 ft 488 kts 85°
2026-05-07 14:24 37.92004 -24.07407 20510 ft 491 kts 85°
2026-05-07 14:24 37.92162 -24.03082 20900 ft 493 kts 85°
2026-05-07 14:25 37.92321 -23.98730 21283 ft 495 kts 85°
2026-05-07 14:25 37.92480 -23.94367 21650 ft 498 kts 85°
2026-05-07 14:25 37.92637 -23.89965 22016 ft 502 kts 85°
2026-05-07 14:25 37.92792 -23.85538 22381 ft 505 kts 85°
2026-05-07 14:26 37.92946 -23.81083 22754 ft 508 kts 85°
2026-05-07 14:26 37.93100 -23.76602 23132 ft 511 kts 85°
2026-05-07 14:26 37.93255 -23.72090 23561 ft 512 kts 86°
2026-05-07 14:26 37.93408 -23.67584 23991 ft 513 kts 85°
2026-05-07 14:27 37.93560 -23.63062 24318 ft 516 kts 85°
2026-05-07 14:27 37.93710 -23.58508 24603 ft 519 kts 85°
2026-05-07 14:27 37.93860 -23.53927 24902 ft 522 kts 85°
2026-05-07 14:27 37.94010 -23.49318 25204 ft 525 kts 85°
2026-05-07 14:28 37.94155 -23.44689 25554 ft 526 kts 85°
2026-05-07 14:28 37.94300 -23.40116 25977 ft 525 kts 85°
2026-05-07 14:28 37.94443 -23.35510 26466 ft 522 kts 85°
2026-05-07 14:28 37.94584 -23.30910 26829 ft 523 kts 85°
2026-05-07 14:29 37.94767 -23.26305 27166 ft 523 kts 81°
2026-05-07 14:29 37.95467 -23.21820 27487 ft 516 kts 68°
2026-05-07 14:29 37.96771 -23.17617 27839 ft 511 kts 60°
2026-05-07 14:29 37.98216 -23.13502 28204 ft 511 kts 59°
2026-05-07 14:30 37.99666 -23.09384 28596 ft 511 kts 60°
2026-05-07 14:30 38.01088 -23.05273 29120 ft 508 kts 61°
2026-05-07 14:30 38.02491 -23.01160 29518 ft 508 kts 61°
2026-05-07 14:30 38.03888 -22.97049 29854 ft 508 kts 61°
2026-05-07 14:31 38.05287 -22.92927 30161 ft 508 kts 61°
2026-05-07 14:31 38.06685 -22.88811 30481 ft 508 kts 61°
2026-05-07 14:31 38.08078 -22.84694 30801 ft 507 kts 61°
2026-05-07 14:31 38.09470 -22.80590 31115 ft 507 kts 61°
2026-05-07 14:32 38.10862 -22.76481 31453 ft 506 kts 61°
2026-05-07 14:32 38.12243 -22.72388 31834 ft 503 kts 61°
2026-05-07 14:32 38.13623 -22.68304 32140 ft 503 kts 61°
2026-05-07 14:32 38.14999 -22.64227 32425 ft 503 kts 61°
2026-05-07 14:33 38.16377 -22.60143 32700 ft 502 kts 61°
2026-05-07 14:33 38.17752 -22.56062 32969 ft 502 kts 61°
2026-05-07 14:33 38.19119 -22.51980 33235 ft 502 kts 62°
2026-05-07 14:33 38.20485 -22.47896 33496 ft 502 kts 62°
2026-05-07 14:34 38.21850 -22.43817 33757 ft 502 kts 62°
2026-05-07 14:34 38.23214 -22.39732 33940 ft 502 kts 62°
2026-05-07 14:34 38.24577 -22.35649 34138 ft 501 kts 62°
2026-05-07 14:34 38.25937 -22.31569 34335 ft 501 kts 62°
2026-05-07 14:35 38.27294 -22.27489 34528 ft 500 kts 63°
2026-05-07 14:35 38.28648 -22.23415 34714 ft 499 kts 63°
2026-05-07 14:35 38.29999 -22.19347 34907 ft 499 kts 63°
2026-05-07 14:35 38.31329 -22.15336 35075 ft 498 kts 63°
2026-05-07 14:36 38.32673 -22.11271 35250 ft 498 kts 63°
2026-05-07 14:36 38.34013 -22.07213 35446 ft 497 kts 64°
2026-05-07 14:36 38.35349 -22.03160 35630 ft 496 kts 64°
2026-05-07 14:36 38.36684 -21.99108 35756 ft 496 kts 64°
2026-05-07 14:37 38.38018 -21.95058 35765 ft 496 kts 64°
2026-05-07 14:37 38.42007 -21.82907 35727 ft 495 kts 64°
2026-05-07 14:38 38.44648 -21.74811 35739 ft 493 kts 64°
2026-05-07 14:38 38.47275 -21.66748 35733 ft 492 kts 65°
2026-05-07 14:39 38.49892 -21.58676 35735 ft 492 kts 65°
2026-05-07 14:39 38.52501 -21.50592 35741 ft 492 kts 65°
2026-05-07 14:40 38.55109 -21.42519 35737 ft 490 kts 65°
2026-05-07 14:40 38.57719 -21.34477 35741 ft 490 kts 65°
2026-05-07 14:41 38.59879 -21.27793 35745 ft 490 kts 65°
2026-05-07 14:41 38.62468 -21.19730 35746 ft 490 kts 65°
2026-05-07 14:42 38.65046 -21.11666 35752 ft 489 kts 66°
2026-05-07 14:42 38.67608 -21.03623 35748 ft 488 kts 66°
2026-05-07 14:43 38.70163 -20.95586 35755 ft 487 kts 66°
2026-05-07 14:43 38.72713 -20.87540 35753 ft 487 kts 66°
2026-05-07 14:44 38.75260 -20.79496 35757 ft 487 kts 66°
2026-05-07 14:44 38.77794 -20.71463 35759 ft 486 kts 66°
2026-05-07 14:45 38.80300 -20.63489 35760 ft 486 kts 66°
2026-05-07 14:45 38.82822 -20.55448 35762 ft 486 kts 66°
2026-05-07 14:46 38.85333 -20.47404 35765 ft 486 kts 66°
2026-05-07 14:46 38.87835 -20.39369 35770 ft 485 kts 67°
2026-05-07 14:47 38.90336 -20.31332 35777 ft 484 kts 67°
2026-05-07 14:47 38.92826 -20.23293 35777 ft 484 kts 67°
2026-05-07 14:48 38.95312 -20.15250 35780 ft 485 kts 67°
2026-05-07 14:48 38.97782 -20.07208 35776 ft 483 kts 68°
2026-05-07 14:49 39.00181 -19.99139 35785 ft 484 kts 72°
2026-05-07 14:49 39.02061 -19.90832 35792 ft 483 kts 74°
2026-05-07 14:50 39.03904 -19.82513 35792 ft 484 kts 74°
2026-05-07 14:50 39.05755 -19.74198 35797 ft 483 kts 75°
2026-05-07 14:51 39.07581 -19.65945 35811 ft 483 kts 75°
2026-05-07 14:51 39.09419 -19.57634 35801 ft 483 kts 75°
2026-05-07 14:52 39.11250 -19.49321 35809 ft 483 kts 75°
2026-05-07 14:52 39.13073 -19.41006 35797 ft 483 kts 75°
2026-05-07 14:53 39.14886 -19.32684 35815 ft 483 kts 75°
2026-05-07 14:53 39.16698 -19.24354 35816 ft 483 kts 75°
2026-05-07 14:54 39.18498 -19.16023 35814 ft 483 kts 75°
2026-05-07 14:54 39.20298 -19.07690 35812 ft 481 kts 76°
2026-05-07 14:55 39.22082 -18.99381 35835 ft 481 kts 76°
2026-05-07 14:55 39.23863 -18.91070 35832 ft 481 kts 76°
2026-05-07 14:56 39.25633 -18.82755 35840 ft 481 kts 76°
2026-05-07 14:56 39.27398 -18.74437 35832 ft 481 kts 76°
2026-05-07 14:57 39.29164 -18.66116 35844 ft 481 kts 76°
2026-05-07 14:57 39.30907 -18.57850 35841 ft 481 kts 76°
2026-05-07 14:58 39.32659 -18.49518 35849 ft 481 kts 76°
2026-05-07 14:58 39.34396 -18.41185 35846 ft 480 kts 77°
2026-05-07 14:59 39.36132 -18.32861 35850 ft 479 kts 77°
2026-05-07 14:59 39.37857 -18.24541 35851 ft 480 kts 77°
2026-05-07 15:00 39.39581 -18.16213 35855 ft 480 kts 77°
2026-05-07 15:00 39.41298 -18.07877 35850 ft 480 kts 77°
2026-05-07 15:01 39.43008 -17.99545 35853 ft 479 kts 78°
2026-05-07 15:01 39.44698 -17.91271 35855 ft 479 kts 78°
2026-05-07 15:02 39.46397 -17.82937 35865 ft 479 kts 78°
2026-05-07 15:02 39.48088 -17.74604 35866 ft 479 kts 78°
2026-05-07 15:03 39.49768 -17.66242 35864 ft 479 kts 78°
2026-05-07 15:03 39.51445 -17.57898 35871 ft 479 kts 79°
2026-05-07 15:04 39.53119 -17.49553 35877 ft 479 kts 79°
2026-05-07 15:04 39.54783 -17.41207 35878 ft 479 kts 79°
2026-05-07 15:05 39.56434 -17.32842 35876 ft 479 kts 79°
2026-05-07 15:05 39.58068 -17.24470 35878 ft 479 kts 79°
2026-05-07 15:06 39.59717 -17.16092 35882 ft 479 kts 79°
2026-05-07 15:06 39.61358 -17.07717 35882 ft 479 kts 79°
2026-05-07 15:07 39.62995 -16.99322 35879 ft 481 kts 80°
2026-05-07 15:07 39.64634 -16.90906 35891 ft 481 kts 80°
2026-05-07 15:08 39.66259 -16.82544 35894 ft 481 kts 80°
2026-05-07 15:08 39.67881 -16.74125 35897 ft 481 kts 80°
2026-05-07 15:09 39.69499 -16.65692 35882 ft 482 kts 81°
2026-05-07 15:09 39.71111 -16.57254 35903 ft 481 kts 81°
2026-05-07 15:10 39.72716 -16.48827 35907 ft 481 kts 81°
2026-05-07 15:10 39.74321 -16.40395 35901 ft 481 kts 81°
2026-05-07 15:11 39.75916 -16.31965 35883 ft 481 kts 82°
2026-05-07 15:11 39.77501 -16.23515 35900 ft 481 kts 82°
2026-05-07 15:12 39.79085 -16.15065 35910 ft 481 kts 82°
2026-05-07 15:12 39.80664 -16.06610 35916 ft 481 kts 82°
2026-05-07 15:13 39.82230 -15.98146 35892 ft 482 kts 82°
2026-05-07 15:13 39.83808 -15.89643 35928 ft 484 kts 82°
2026-05-07 15:14 39.85386 -15.81137 35908 ft 484 kts 82°
2026-05-07 15:14 39.86944 -15.72621 35930 ft 484 kts 82°
2026-05-07 15:15 39.88500 -15.64098 35907 ft 484 kts 82°
2026-05-07 15:15 39.90062 -15.55537 35921 ft 487 kts 82°
2026-05-07 15:16 39.91625 -15.46964 35926 ft 487 kts 82°
2026-05-07 15:16 39.93161 -15.38441 35927 ft 486 kts 82°
2026-05-07 15:17 39.94700 -15.29860 35930 ft 486 kts 82°
2026-05-07 15:17 39.96219 -15.21274 35926 ft 486 kts 82°
2026-05-07 15:18 39.97757 -15.12684 35929 ft 486 kts 82°
2026-05-07 15:18 39.99486 -15.04143 35928 ft 492 kts 72°
2026-05-07 15:19 40.01041 -15.00143 35923 ft 499 kts 59°
2026-05-07 15:19 40.03224 -14.96608 35923 ft 503 kts 46°
2026-05-07 15:19 40.08607 -14.90766 35920 ft 503 kts 39°
2026-05-07 15:20 40.14074 -14.85061 35925 ft 503 kts 39°
2026-05-07 15:20 40.19490 -14.79286 35927 ft 502 kts 40°
2026-05-07 15:21 40.24880 -14.73510 35930 ft 500 kts 40°
2026-05-07 15:21 40.30228 -14.67779 35928 ft 500 kts 40°
2026-05-07 15:22 40.35611 -14.61999 35929 ft 500 kts 40°
2026-05-07 15:22 40.40991 -14.56212 35912 ft 500 kts 40°
2026-05-07 15:23 40.46355 -14.50438 35922 ft 498 kts 40°
2026-05-07 15:23 40.51708 -14.44647 35926 ft 498 kts 40°
2026-05-07 15:24 40.57059 -14.38855 35927 ft 498 kts 40°
2026-05-07 15:24 40.62404 -14.33051 35926 ft 498 kts 40°
2026-05-07 15:25 40.67745 -14.27245 35938 ft 498 kts 40°
2026-05-07 15:25 40.73075 -14.21432 35900 ft 497 kts 40°
2026-05-07 15:26 40.78392 -14.15630 35919 ft 496 kts 40°
2026-05-07 15:26 40.83717 -14.09803 35927 ft 501 kts 40°
2026-05-07 15:27 40.89110 -14.03880 35932 ft 507 kts 40°
2026-05-07 15:27 40.94540 -13.97911 35931 ft 507 kts 40°
2026-05-07 15:28 40.99954 -13.91950 35926 ft 506 kts 40°
2026-05-07 15:28 41.05323 -13.86018 35925 ft 506 kts 40°
2026-05-07 15:29 41.10723 -13.80044 35922 ft 505 kts 40°
2026-05-07 15:29 41.16118 -13.74064 35927 ft 505 kts 40°
2026-05-07 15:30 41.21488 -13.68091 35930 ft 503 kts 40°
2026-05-07 15:30 41.26855 -13.62102 35930 ft 502 kts 40°
2026-05-07 15:31 41.32222 -13.56117 35928 ft 503 kts 40°
2026-05-07 15:31 41.37580 -13.50128 35927 ft 504 kts 40°
2026-05-07 15:32 41.42926 -13.44127 35927 ft 501 kts 40°
2026-05-07 15:32 41.48236 -13.38154 35932 ft 500 kts 40°
2026-05-07 15:33 41.53553 -13.32171 35933 ft 500 kts 40°
2026-05-07 15:33 41.58860 -13.26171 35935 ft 500 kts 40°
2026-05-07 15:34 41.63266 -13.21179 35934 ft 500 kts 40°
2026-05-07 15:34 41.68558 -13.15190 35937 ft 495 kts 40°
2026-05-07 15:35 41.74662 -13.08259 35932 ft 493 kts 40°
2026-05-07 15:35 41.79040 -13.03269 35934 ft 494 kts 40°
2026-05-07 15:36 41.84268 -12.97298 35935 ft 494 kts 40°
2026-05-07 15:36 41.89497 -12.91320 35945 ft 494 kts 40°
2026-05-07 15:37 41.94699 -12.85353 35940 ft 492 kts 40°
2026-05-07 15:37 41.99897 -12.79381 35941 ft 491 kts 40°
2026-05-07 15:38 42.05103 -12.73391 35935 ft 491 kts 40°
2026-05-07 15:38 42.10292 -12.67394 35940 ft 491 kts 40°
2026-05-07 15:39 42.15442 -12.61430 35934 ft 492 kts 40°
2026-05-07 15:39 42.20643 -12.55348 35936 ft 492 kts 40°
2026-05-07 15:40 42.25816 -12.49316 35933 ft 492 kts 40°
2026-05-07 15:40 42.30956 -12.43316 35931 ft 492 kts 40°
2026-05-07 15:41 42.36179 -12.37265 35945 ft 491 kts 39°
2026-05-07 15:41 42.41341 -12.31242 35935 ft 490 kts 40°
2026-05-07 15:42 42.46501 -12.25214 35929 ft 490 kts 40°
2026-05-07 15:42 42.51651 -12.19178 35930 ft 490 kts 40°
2026-05-07 15:43 42.56794 -12.13109 35937 ft 490 kts 40°
2026-05-07 15:43 42.61909 -12.07088 35939 ft 490 kts 40°
2026-05-07 15:44 42.66930 -12.00847 35925 ft 492 kts 48°
2026-05-07 15:44 42.68937 -11.97083 35929 ft 494 kts 60°
2026-05-07 15:44 42.70511 -11.92939 35942 ft 492 kts 64°
2026-05-07 15:45 42.73447 -11.84546 35933 ft 491 kts 65°
2026-05-07 15:45 42.76415 -11.76168 35935 ft 491 kts 64°
2026-05-07 15:46 42.80884 -11.63606 35927 ft 492 kts 65°
2026-05-07 15:47 42.83850 -11.55215 35931 ft 492 kts 65°
2026-05-07 15:47 42.86782 -11.46801 35935 ft 491 kts 65°
2026-05-07 15:48 42.89724 -11.38407 35932 ft 491 kts 65°
2026-05-07 15:48 42.92670 -11.30010 35927 ft 491 kts 64°
2026-05-07 15:49 42.95615 -11.21614 35928 ft 490 kts 64°
2026-05-07 15:49 42.98555 -11.13216 35927 ft 490 kts 64°
2026-05-07 15:50 43.01479 -11.04800 35929 ft 490 kts 64°
2026-05-07 15:50 43.04411 -10.96387 35921 ft 490 kts 64°
2026-05-07 15:51 43.07323 -10.87941 35921 ft 491 kts 64°
2026-05-07 15:51 43.10236 -10.79496 35923 ft 491 kts 64°
2026-05-07 15:52 43.13139 -10.71097 35925 ft 491 kts 64°
2026-05-07 15:52 43.16043 -10.62639 35920 ft 491 kts 64°
2026-05-07 15:53 43.18940 -10.54174 35922 ft 491 kts 64°
2026-05-07 15:53 43.21826 -10.45683 35921 ft 491 kts 64°
2026-05-07 15:54 43.24710 -10.37188 35912 ft 492 kts 64°
2026-05-07 15:54 43.27596 -10.28685 35911 ft 491 kts 64°
2026-05-07 15:55 43.30471 -10.20167 35913 ft 492 kts 64°
2026-05-07 15:55 43.33341 -10.11636 35907 ft 493 kts 64°
2026-05-07 15:56 43.36210 -10.03077 35905 ft 493 kts 64°
2026-05-07 15:56 43.39068 -9.94515 35903 ft 493 kts 64°
2026-05-07 15:57 43.41903 -9.85997 35908 ft 493 kts 64°
2026-05-07 15:57 43.44748 -9.77422 35906 ft 493 kts 63°
2026-05-07 15:58 43.47588 -9.68837 35904 ft 493 kts 63°
2026-05-07 15:58 43.50419 -9.60251 35898 ft 493 kts 63°
2026-05-07 15:59 43.53250 -9.51647 35900 ft 493 kts 64°
2026-05-07 15:59 43.56071 -9.43044 35910 ft 492 kts 63°
2026-05-07 16:00 43.58879 -9.34441 35894 ft 491 kts 63°
2026-05-07 16:00 43.61681 -9.25837 35900 ft 492 kts 63°
2026-05-07 16:01 43.64475 -9.17231 35899 ft 492 kts 64°
2026-05-07 16:01 43.67255 -9.08606 35921 ft 491 kts 63°
2026-05-07 16:02 43.70030 -9.00005 35897 ft 489 kts 63°
2026-05-07 16:02 43.72797 -8.91411 35898 ft 489 kts 63°
2026-05-07 16:03 43.75556 -8.82805 35897 ft 489 kts 63°
2026-05-07 16:03 43.78300 -8.74187 35903 ft 490 kts 64°
2026-05-07 16:04 43.81011 -8.65546 35907 ft 488 kts 63°
2026-05-07 16:04 43.83731 -8.56936 35896 ft 488 kts 63°
2026-05-07 16:05 43.86447 -8.48379 35885 ft 488 kts 63°
2026-05-07 16:05 43.89161 -8.39759 35893 ft 488 kts 63°
2026-05-07 16:06 43.91879 -8.31132 35892 ft 487 kts 63°
2026-05-07 16:06 43.94569 -8.22530 35889 ft 486 kts 63°
2026-05-07 16:07 43.97247 -8.13928 35888 ft 486 kts 63°
2026-05-07 16:07 43.99931 -8.05328 35888 ft 486 kts 63°
2026-05-07 16:08 44.02611 -7.96714 35888 ft 486 kts 64°
2026-05-07 16:08 44.05270 -7.88088 35889 ft 486 kts 64°
2026-05-07 16:09 44.07926 -7.79446 35889 ft 486 kts 64°
2026-05-07 16:09 44.10580 -7.70807 35888 ft 486 kts 64°
2026-05-07 16:10 44.13227 -7.62161 35889 ft 486 kts 64°
2026-05-07 16:10 44.15852 -7.53501 35893 ft 484 kts 64°
2026-05-07 16:11 44.18450 -7.44929 35901 ft 484 kts 64°
2026-05-07 16:11 44.21062 -7.36297 35892 ft 483 kts 64°
2026-05-07 16:12 44.23671 -7.27656 35897 ft 483 kts 64°
2026-05-07 16:12 44.26269 -7.19019 35899 ft 483 kts 64°
2026-05-07 16:13 44.28873 -7.10378 35896 ft 483 kts 65°
2026-05-07 16:13 44.31447 -7.01729 35897 ft 483 kts 65°
2026-05-07 16:14 44.34024 -6.93074 35902 ft 483 kts 65°
2026-05-07 16:14 44.36617 -6.84426 35903 ft 483 kts 65°
2026-05-07 16:15 44.39198 -6.75769 35903 ft 482 kts 65°
2026-05-07 16:15 44.41748 -6.67101 35902 ft 482 kts 66°
2026-05-07 16:16 44.44296 -6.58425 35910 ft 482 kts 66°
2026-05-07 16:16 44.46838 -6.49742 35908 ft 482 kts 66°
2026-05-07 16:17 44.49367 -6.41054 35909 ft 482 kts 66°
2026-05-07 16:17 44.51896 -6.32366 35911 ft 481 kts 66°
2026-05-07 16:18 44.54420 -6.23677 35911 ft 481 kts 66°
2026-05-07 16:18 44.56927 -6.14967 35911 ft 482 kts 66°
2026-05-07 16:19 44.59431 -6.06263 35909 ft 481 kts 66°
2026-05-07 16:19 44.61925 -5.97565 35911 ft 480 kts 66°
2026-05-07 16:20 44.64396 -5.88932 35914 ft 480 kts 66°
2026-05-07 16:20 44.67830 -5.81018 35913 ft 473 kts 45°
2026-05-07 16:21 44.72509 -5.74541 35920 ft 472 kts 41°
2026-05-07 16:21 44.77243 -5.68131 35922 ft 472 kts 41°
2026-05-07 16:22 44.81945 -5.61680 35917 ft 472 kts 42°
2026-05-07 16:22 44.86639 -5.55218 35934 ft 472 kts 42°
2026-05-07 16:23 44.91328 -5.48740 35922 ft 472 kts 42°
2026-05-07 16:23 44.96010 -5.42251 35932 ft 472 kts 42°
2026-05-07 16:24 44.99901 -5.36851 35926 ft 472 kts 42°
2026-05-07 16:24 45.04590 -5.30340 35931 ft 473 kts 43°
2026-05-07 16:25 45.09281 -5.23793 35935 ft 473 kts 42°
2026-05-07 16:25 45.13972 -5.17252 35938 ft 474 kts 43°
2026-05-07 16:26 45.18657 -5.10684 35935 ft 473 kts 43°
2026-05-07 16:26 45.23336 -5.04120 35938 ft 473 kts 43°
2026-05-07 16:27 45.28021 -4.97517 35949 ft 476 kts 43°
2026-05-07 16:27 45.32729 -4.90874 35941 ft 477 kts 43°
2026-05-07 16:28 45.37435 -4.84220 35949 ft 477 kts 43°
2026-05-07 16:28 45.42138 -4.77558 35946 ft 477 kts 43°
2026-05-07 16:29 45.46832 -4.70878 35952 ft 477 kts 44°
2026-05-07 16:29 45.51480 -4.64201 35950 ft 479 kts 44°
2026-05-07 16:30 45.56201 -4.57457 35951 ft 480 kts 44°
2026-05-07 16:30 45.60914 -4.50697 35955 ft 480 kts 44°
2026-05-07 16:31 45.65623 -4.43926 35958 ft 480 kts 44°
2026-05-07 16:31 45.70326 -4.37135 35963 ft 480 kts 44°
2026-05-07 16:32 45.75029 -4.30346 35952 ft 480 kts 44°
2026-05-07 16:32 45.79745 -4.23569 35961 ft 480 kts 44°
2026-05-07 16:33 45.84458 -4.16783 35960 ft 480 kts 44°
2026-05-07 16:33 45.89150 -4.09965 35957 ft 480 kts 44°
2026-05-07 16:34 45.93838 -4.03133 35962 ft 480 kts 44°
2026-05-07 16:34 45.98522 -3.96283 35967 ft 480 kts 45°
2026-05-07 16:35 46.03197 -3.89418 35964 ft 480 kts 45°
2026-05-07 16:35 46.07876 -3.82550 35965 ft 480 kts 45°
2026-05-07 16:36 46.12552 -3.75663 35969 ft 480 kts 45°
2026-05-07 16:36 46.17205 -3.68755 35968 ft 480 kts 45°
2026-05-07 16:37 46.21827 -3.61884 35967 ft 480 kts 45°
2026-05-07 16:37 46.26521 -3.54921 35967 ft 482 kts 45°
2026-05-07 16:38 46.31164 -3.48018 35972 ft 482 kts 45°
2026-05-07 16:38 46.35838 -3.41052 35974 ft 482 kts 46°
2026-05-07 16:39 46.40495 -3.34079 35973 ft 482 kts 46°
2026-05-07 16:39 46.45145 -3.27087 35973 ft 482 kts 46°
2026-05-07 16:40 46.49795 -3.20086 35967 ft 482 kts 46°
2026-05-07 16:40 46.54454 -3.13056 35977 ft 483 kts 46°
2026-05-07 16:41 46.58555 -3.05371 35975 ft 482 kts 59°
2026-05-07 16:41 46.61936 -2.96947 35976 ft 482 kts 61°
2026-05-07 16:42 46.65284 -2.88497 35974 ft 482 kts 60°
2026-05-07 16:42 46.68660 -2.80056 35970 ft 483 kts 60°
2026-05-07 16:43 46.72036 -2.71592 35973 ft 483 kts 61°
2026-05-07 16:43 46.75403 -2.63111 35973 ft 483 kts 61°
2026-05-07 16:44 46.78762 -2.54623 35971 ft 483 kts 61°
2026-05-07 16:44 46.82112 -2.46113 35967 ft 483 kts 61°
2026-05-07 16:45 46.85516 -2.37631 35962 ft 486 kts 57°
2026-05-07 16:45 46.89995 -2.30232 35970 ft 487 kts 45°
2026-05-07 16:46 46.94783 -2.23214 35968 ft 487 kts 45°
2026-05-07 16:46 46.99535 -2.16169 35962 ft 486 kts 45°
2026-05-07 16:47 47.04239 -2.09146 35958 ft 486 kts 45°
2026-05-07 16:47 47.08970 -2.02065 35950 ft 487 kts 45°
2026-05-07 16:48 47.13718 -1.94943 35964 ft 488 kts 45°
2026-05-07 16:48 47.18463 -1.87814 35963 ft 487 kts 46°
2026-05-07 16:49 47.23194 -1.80691 35966 ft 486 kts 46°
2026-05-07 16:49 47.27914 -1.73556 35964 ft 487 kts 46°
2026-05-07 16:50 47.32633 -1.66396 35959 ft 487 kts 46°
2026-05-07 16:50 47.37354 -1.59227 35960 ft 488 kts 46°
2026-05-07 16:51 47.42065 -1.52042 35957 ft 486 kts 46°
2026-05-07 16:51 47.46771 -1.44852 35961 ft 486 kts 46°
2026-05-07 16:52 47.51467 -1.37656 35958 ft 486 kts 46°
2026-05-07 16:52 47.56165 -1.30443 35964 ft 486 kts 46°
2026-05-07 16:53 47.60848 -1.23223 35964 ft 486 kts 46°
2026-05-07 16:53 47.65529 -1.15985 35972 ft 486 kts 46°
2026-05-07 16:54 47.70204 -1.08732 35974 ft 486 kts 46°
2026-05-07 16:54 47.74846 -1.01513 35969 ft 486 kts 46°
2026-05-07 16:55 47.79522 -0.94241 35981 ft 486 kts 46°
2026-05-07 16:55 47.84173 -0.86968 35990 ft 484 kts 46°
2026-05-07 16:56 47.88816 -0.79697 35992 ft 484 kts 46°
2026-05-07 16:56 47.95770 -0.68785 35994 ft 484 kts 46°
2026-05-07 16:57 48.00399 -0.61500 35994 ft 484 kts 46°
2026-05-07 16:57 48.05025 -0.54203 35996 ft 483 kts 46°
2026-05-07 16:58 48.09632 -0.46905 35994 ft 483 kts 46°
2026-05-07 16:58 48.14234 -0.39583 36001 ft 483 kts 46°
2026-05-07 16:59 48.18827 -0.32257 36008 ft 483 kts 46°
2026-05-07 16:59 48.23419 -0.24909 36010 ft 483 kts 46°
2026-05-07 17:00 48.27997 -0.17559 36010 ft 482 kts 47°
2026-05-07 17:00 48.32570 -0.10193 36008 ft 482 kts 47°
2026-05-07 17:01 48.37104 -0.02777 36009 ft 482 kts 49°
2026-05-07 17:01 48.41508 0.04812 36004 ft 482 kts 49°
2026-05-07 17:02 48.45906 0.12433 36012 ft 482 kts 49°
2026-05-07 17:02 48.50261 0.20008 36009 ft 481 kts 49°
2026-05-07 17:03 48.54651 0.27640 36010 ft 481 kts 49°
2026-05-07 17:03 48.59027 0.35286 36010 ft 481 kts 49°
2026-05-07 17:04 48.63405 0.42949 36012 ft 481 kts 49°
2026-05-07 17:04 48.67774 0.50614 36018 ft 480 kts 49°
2026-05-07 17:05 48.72124 0.58280 36019 ft 480 kts 49°
2026-05-07 17:05 48.76474 0.65963 36020 ft 480 kts 49°
2026-05-07 17:06 48.80818 0.73657 36021 ft 480 kts 49°
2026-05-07 17:06 48.85151 0.81362 36020 ft 480 kts 49°
2026-05-07 17:07 48.89483 0.89081 36025 ft 480 kts 49°
2026-05-07 17:07 48.93813 0.96811 36023 ft 480 kts 49°
2026-05-07 17:08 48.98134 1.04559 36024 ft 480 kts 49°
2026-05-07 17:08 49.02418 1.12276 36021 ft 480 kts 49°
2026-05-07 17:09 49.06729 1.20054 36023 ft 480 kts 49°
2026-05-07 17:09 49.11034 1.27836 36025 ft 480 kts 49°
2026-05-07 17:10 49.15329 1.35629 36026 ft 480 kts 49°
2026-05-07 17:10 49.19619 1.43452 36034 ft 480 kts 49°
2026-05-07 17:11 49.23905 1.51283 36032 ft 480 kts 49°
2026-05-07 17:11 49.28443 1.58753 36036 ft 479 kts 43°
2026-05-07 17:12 49.33271 1.65792 36042 ft 479 kts 43°
2026-05-07 17:12 49.38063 1.72791 36045 ft 479 kts 43°
2026-05-07 17:13 49.42880 1.79844 36036 ft 479 kts 43°
2026-05-07 17:13 49.47688 1.86932 36041 ft 479 kts 43°
2026-05-07 17:14 49.52491 1.94024 36060 ft 479 kts 43°
2026-05-07 17:14 49.57291 2.01131 36052 ft 478 kts 43°
2026-05-07 17:15 49.62083 2.08246 36050 ft 478 kts 43°
2026-05-07 17:15 49.66058 2.14170 36050 ft 478 kts 43°
2026-05-07 17:16 49.70845 2.21310 36046 ft 478 kts 43°
2026-05-07 17:16 49.75624 2.28467 36042 ft 478 kts 43°
2026-05-07 17:17 49.80399 2.35628 36041 ft 478 kts 43°
2026-05-07 17:17 49.85187 2.42785 36042 ft 478 kts 43°
2026-05-07 17:18 49.89953 2.49968 36045 ft 478 kts 43°
2026-05-07 17:18 49.94716 2.57173 36059 ft 478 kts 43°
2026-05-07 17:19 49.99471 2.64399 36052 ft 478 kts 43°
2026-05-07 17:19 50.04224 2.71640 36055 ft 478 kts 43°
2026-05-07 17:20 50.08970 2.78895 36052 ft 478 kts 43°
2026-05-07 17:20 50.13674 2.86106 36050 ft 478 kts 43°
2026-05-07 17:21 50.18407 2.93386 36052 ft 478 kts 43°
2026-05-07 17:21 50.23137 3.00683 36055 ft 478 kts 43°
2026-05-07 17:22 50.27861 3.07979 36063 ft 478 kts 44°
2026-05-07 17:22 50.32580 3.15297 36070 ft 478 kts 44°
2026-05-07 17:23 50.37295 3.22635 36072 ft 478 kts 44°
2026-05-07 17:23 50.42449 3.29104 36077 ft 474 kts 27°
2026-05-07 17:24 50.48330 3.33753 36080 ft 473 kts 24°
2026-05-07 17:24 50.54292 3.38127 36078 ft 472 kts 21°
2026-05-07 17:25 50.60322 3.42247 36078 ft 472 kts 21°
2026-05-07 17:25 50.66348 3.46401 36072 ft 473 kts 21°
2026-05-07 17:26 50.72370 3.50557 36074 ft 472 kts 21°
2026-05-07 17:26 50.78306 3.54682 35029 ft 467 kts 21°
2026-05-07 17:27 50.81254 3.56726 34180 ft 470 kts 21°
2026-05-07 17:27 50.84249 3.58808 33249 ft 470 kts 21°
2026-05-07 17:27 50.87254 3.60903 32223 ft 473 kts 21°
2026-05-07 17:27 50.90320 3.62785 31207 ft 473 kts 14°
2026-05-07 17:28 50.93536 3.63815 30172 ft 472 kts
2026-05-07 17:28 50.96807 3.64115 29090 ft 471 kts 360°
2026-05-07 17:28 51.00071 3.64292 28236 ft 466 kts 359°
2026-05-07 17:28 51.03287 3.64464 27490 ft 461 kts 360°
2026-05-07 17:29 51.06479 3.64650 26710 ft 457 kts 360°
2026-05-07 17:29 51.09639 3.64849 25992 ft 452 kts
2026-05-07 17:29 51.12740 3.65507 25248 ft 451 kts 13°
2026-05-07 17:29 51.15679 3.67134 24284 ft 445 kts 19°
2026-05-07 17:30 51.18540 3.68941 23201 ft 439 kts 20°
2026-05-07 17:30 51.21356 3.70706 22174 ft 431 kts 20°
2026-05-07 17:30 51.24133 3.72409 21146 ft 423 kts 19°
2026-05-07 17:30 51.26863 3.74051 20094 ft 417 kts 19°
2026-05-07 17:31 51.29555 3.75665 19135 ft 408 kts 19°
2026-05-07 17:31 51.32192 3.77248 18142 ft 401 kts 19°
2026-05-07 17:31 51.34793 3.78814 17257 ft 398 kts 19°
2026-05-07 17:31 51.37358 3.80356 16682 ft 389 kts 19°
2026-05-07 17:32 51.39863 3.81863 16215 ft 379 kts 20°
2026-05-07 17:32 51.42303 3.83334 15760 ft 371 kts 20°
2026-05-07 17:32 51.44663 3.84759 15304 ft 365 kts 20°
2026-05-07 17:32 51.47040 3.86197 14856 ft 365 kts 20°
2026-05-07 17:33 51.49411 3.87636 14401 ft 364 kts 20°
2026-05-07 17:33 51.51772 3.89072 13954 ft 362 kts 20°
2026-05-07 17:33 51.54126 3.90497 13435 ft 361 kts 19°
2026-05-07 17:33 51.56466 3.91915 12975 ft 358 kts 20°
2026-05-07 17:34 51.58780 3.93324 12535 ft 354 kts 20°
2026-05-07 17:34 51.61077 3.94723 12090 ft 351 kts 20°
2026-05-07 17:34 51.63354 3.96112 11630 ft 350 kts 20°
2026-05-07 17:34 51.65625 3.97500 11202 ft 347 kts 20°
2026-05-07 17:35 51.67848 3.98862 10908 ft 336 kts 20°
2026-05-07 17:35 51.69996 4.00175 10711 ft 323 kts 20°
2026-05-07 17:35 51.72058 4.01433 10538 ft 310 kts 20°
2026-05-07 17:35 51.74031 4.02643 10380 ft 298 kts 20°
2026-05-07 17:36 51.75941 4.03816 10099 ft 290 kts 20°
2026-05-07 17:36 51.77819 4.04970 9720 ft 287 kts 20°
2026-05-07 17:36 51.79684 4.06114 9337 ft 287 kts 20°
2026-05-07 17:36 51.81547 4.07257 8995 ft 285 kts 20°
2026-05-07 17:37 51.83390 4.08389 8675 ft 280 kts 20°
2026-05-07 17:37 51.85179 4.09493 8492 ft 269 kts 20°
2026-05-07 17:37 51.86889 4.10548 8340 ft 258 kts 20°
2026-05-07 17:37 51.88552 4.11573 8037 ft 254 kts 20°
2026-05-07 17:38 51.90194 4.12588 7707 ft 252 kts 21°
2026-05-07 17:38 51.91752 4.13837 7388 ft 250 kts 36°
2026-05-07 17:38 51.93114 4.15567 7059 ft 248 kts 41°
2026-05-07 17:38 51.94436 4.17350 6751 ft 247 kts 41°
2026-05-07 17:39 51.95752 4.19117 6464 ft 244 kts 41°
2026-05-07 17:39 51.97062 4.20865 6142 ft 243 kts 41°
2026-05-07 17:39 51.98368 4.22604 5812 ft 242 kts 40°
2026-05-07 17:39 51.99670 4.24333 5497 ft 241 kts 40°
2026-05-07 17:40 52.00965 4.26051 5188 ft 240 kts 41°
2026-05-07 17:40 52.02250 4.27758 4919 ft 238 kts 40°
2026-05-07 17:40 52.03526 4.29451 4625 ft 236 kts 40°
2026-05-07 17:40 52.04774 4.31107 4336 ft 234 kts 41°
2026-05-07 17:41 52.06027 4.32771 4034 ft 232 kts 40°
2026-05-07 17:41 52.07275 4.34429 3756 ft 229 kts 40°
2026-05-07 17:41 52.08481 4.36032 3593 ft 219 kts 40°
2026-05-07 17:41 52.09625 4.37555 3452 ft 206 kts 41°
2026-05-07 17:42 52.10698 4.38984 3311 ft 193 kts 41°
2026-05-07 17:42 52.11707 4.40329 3121 ft 184 kts 41°
2026-05-07 17:42 52.12687 4.41638 2965 ft 182 kts 41°
2026-05-07 17:42 52.13658 4.42936 2833 ft 180 kts 41°
2026-05-07 17:43 52.14625 4.44225 2704 ft 180 kts 41°
2026-05-07 17:43 52.15598 4.45511 2578 ft 179 kts 41°
2026-05-07 17:43 52.16560 4.46786 2456 ft 178 kts 41°
2026-05-07 17:43 52.17509 4.48053 2334 ft 177 kts 41°
2026-05-07 17:44 52.18459 4.49327 2216 ft 177 kts 40°
2026-05-07 17:44 52.19412 4.50599 2102 ft 176 kts 40°
2026-05-07 17:44 52.20291 4.51983 1971 ft 175 kts 50°
2026-05-07 17:44 52.21037 4.53538 1958 ft 174 kts 55°
2026-05-07 17:45 52.21705 4.55129 1995 ft 160 kts 57°
2026-05-07 17:45 52.22287 4.56571 1984 ft 152 kts 58°
2026-05-07 17:45 52.22859 4.58037 1990 ft 153 kts 58°
2026-05-07 17:45 52.23429 4.59510 1983 ft 154 kts 58°
2026-05-07 17:46 52.23998 4.60984 1841 ft 152 kts 59°
2026-05-07 17:46 52.24565 4.62454 1649 ft 152 kts 58°
2026-05-07 17:46 52.25120 4.63894 1436 ft 146 kts 58°
2026-05-07 17:46 52.25651 4.65272 1226 ft 142 kts 57°
2026-05-07 17:47 52.26179 4.66639 1013 ft 143 kts 57°
2026-05-07 17:47 52.26710 4.68008 794 ft 143 kts 56°
2026-05-07 17:47 52.27250 4.69374 649 ft 143 kts 57°
2026-05-07 17:47 52.27764 4.70762 468 ft 142 kts 57°
2026-05-07 17:48 52.28283 4.72134 295 ft 142 kts 57°
2026-05-07 17:48 52.28820 4.73501 92 ft 142 kts 57°
2026-05-07 17:48 52.29332 4.74825 4 ft 128 kts 58°
2026-05-07 17:48 52.29704 4.75788 3 ft 71 kts 59°
2026-05-07 17:49 52.29918 4.76344 1 ft 46 kts 59°
2026-05-07 17:49 52.30063 4.76576 4 ft 29 kts 25°
2026-05-07 17:49 52.30222 4.76705 4 ft 19 kts 28°
2026-05-07 17:49 52.30321 4.76724 4 ft 13 kts 320°
2026-05-07 17:50 52.30377 4.76648 4 ft 6 kts 333°
2026-05-07 17:50 52.30414 4.76656 4 ft 5 kts 26°
2026-05-07 17:50 52.30423 4.76664 4 ft 0 kts 27°